Regional Weather Roundup
Issued by NWS Sterling, VA

Home | Current Version | Previous Version | Text Only | Print | Product List | Glossary On
Versions: 1 2 3 4 5 6 7 8 9 10 11 12 13 14 15 16 17 18 19 20 21 22 23 24 25 26 27 28 29 30 31 32 33 34 35 36 37 38 39 40 41 42 43 44 45 46 47 48 49 50
000
ASUS41 KLWX 120010
RWRLWX

REGIONAL WEATHER ROUNDUP
NATIONAL WEATHER SERVICE BALTIMORE MD/WASHINGTON DC
800 PM EDT FRI JUL 11 2014

Note: "FAIR" indicates few or no clouds below 12,000 feet
with no significant weather and/or obstructions to visibility.
 TC=TEMPERATURE CELSIUS

 * =Non NWS site. Station does not report precipitation (e.g. rain,
    snow, etc.), thunder, or fog.

DCZ001-MDZ009-015-VAZ040>042-051-053>054-120100-
WASHINGTON METRO

CITY           SKY/WX    TMP DP  RH WIND       PRES   REMARKS
WASHINGTON NAT MOCLDY    83  64  52 SE5       30.17R
DULLES         PTCLDY    80  65  59 S6        30.17R
ANDREWS AFB    CLEAR     79  67  66 E5        30.18R
FT BELVOIR     DRIZZLE   78  74  86 CALM      30.17S
QUANTICO       CLEAR     82  68  62 S6        30.17S
COLLEGE PARK*  CLEAR     81  68  65 E3        30.17R
LEESBURG*      PTCLDY    82  70  65 S5        30.18S
GAITHERSBURG*  PTCLDY    77  64  65 E3        30.21S

$$

MDZ006>007-011-014-120100-
BALTIMORE METRO

CITY           SKY/WX    TMP DP  RH WIND       PRES   REMARKS
BWI AIRPORT    PTCLDY    81  64  56 S3        30.16S
MD SCIENCE CTR   N/A     83  61  47 MISG      30.17S
MARTIN STATE   PTCLDY    82  68  61 S5        30.17F
ANNAPOLIS      CLEAR     80  66  62 S6        30.16S
FORT MEADE*    CLEAR     75  68  78 S3        30.19S

$$

MDZ012-015-019>023-120100-
MARYLAND EASTERN SHORE

CITY           SKY/WX    TMP DP  RH WIND       PRES   REMARKS
OCEAN CITY     PTCLDY    74  69  85 E5        30.18S
SALISBURY      CLEAR     77  68  73 E3        30.18R
BAY BRIDGE AP*   N/A     81  68  65 SE3       30.17S
CAMBRIDGE*     CLEAR     79  72  78 CALM      30.17S
EASTON*        CLEAR     81  72  74 CALM      30.21S

$$

MDZ017>025-120100-
SOUTHERN MARYLAND

CITY           SKY/WX    TMP DP  RH WIND       PRES   REMARKS
PATUXENT RIVER PTCLDY    78  69  73 E3        30.17R
ST INIGOES     CLEAR     79  68  69 CALM      30.17R
LEONARDTOWN*   MOCLDY    77  68  73 CALM      30.19S

$$

MDZ003>005-120100-
NORTH CENTRAL MARYLAND

CITY           SKY/WX    TMP DP  RH WIND       PRES   REMARKS
FREDERICK*     PTCLDY    79  75  89 CALM      30.19R
HAGERSTOWN APT CLEAR     80  64  58 E5        30.18R
WESTMINSTER*   CLEAR     82  64  54 CALM      30.20R

$$

MDZ501>502-120100-
WESTERN MARYLAND

CITY           SKY/WX    TMP DP  RH WIND       PRES   REMARKS
OAKLAND*       CLEAR     70  61  73 SE5       30.28R
CUMBERLAND*    PTCLDY    82  63  51 CALM      30.21R

$$

VAZ025>031-120100-
SHENANDOAH VALLEY

CITY           SKY/WX    TMP DP  RH WIND       PRES   REMARKS
WINCHESTER*    CLEAR     79  63  57 SE3       30.18S
STAUNTON*      PTCLDY    76  63  62 E3        30.22S

$$

WVZ021-048>050-054>055-120100-
EASTERN WEST VIRGINIA PANHANDLE

CITY           SKY/WX    TMP DP  RH WIND       PRES   REMARKS
MARTINSBURG    CLEAR     81  61  50 S3        30.18S
PETERSBURG*    MOCLDY    78  64  61 CALM      30.19S

$$

VAZ036>039-050-120100-
CENTRAL FOOTHILLS

CITY           SKY/WX    TMP DP  RH WIND       PRES   REMARKS
CHARLOTTESVILL CLEAR     81  67  62 E5        30.18S
ORANGE*        CLEAR     81  68  65 CALM      30.19S

$$

VAZ055>057-120100-
NORTH AND CENTRAL PIEDMONT

CITY           SKY/WX    TMP DP  RH WIND       PRES   REMARKS
FREDERICKSBRG* CLEAR     83  69  61 SE3       30.16R
STAFFORD*      CLEAR     81  66  60 E3        30.21R

$$

NCZ024-NYZ072-PAZ021-071-VAZ022-071-120100-
OTHER REGIONAL OBSERVATIONS

CITY           SKY/WX    TMP DP  RH WIND       PRES   REMARKS
NEW YORK CITY  CLOUDY    76  62  62 S7        30.22R
PHILADELPHIA   MOCLDY    81  62  52 S8        30.18R
PITTSBURGH     PTCLDY    81  59  47 W3        30.17S
ROANOKE        CLEAR     80  65  59 SE8       30.21R
RICHMOND       PTCLDY    83  67  58 SE7       30.17R
RALEIGH        PTCLDY    81  67  62 E6        30.18R

$$

ANZ530>537-120100-
MARINE OBSERVATIONS

STATION/POSITION TIME  TEMP    WIND        PRES
                       AIR SEA DIR/SP/G
                 (UTC) (F)     (DEG/KT/KT) (MB)
THOMAS PT LIGHT  0000   80 81  160/  6/  6 1022.0R
BALT KEY BRIDGE  0000   84     120/  5/  6 1021.1F
COVE POINT       0000   79      60/  9/ 10 1021.5S
LEWISETTA        0000   80 82  110/  6/  7 1021.4S
SOLOMONS ISLAND  0000      80                N/A
PINEY POINT      0000          160/  5/  6   N/A

$$




USA.gov is the U.S. government's official web portal to all federal, state and local government web resources and services.